Home > Weather > Traiskirchen > Past weeks

Flag for Austria Past Weather in Traiskirchen, Lower Austria, Austria — Yesterday and Last 2 Weeks

Now
72 °F

Clear.


Feels Like: 69 °F
Forecast: 67 / 77 °F
Wind: N/A

Location: Wien / Schwechat-Flughafen

Current Time: Jun 25, 2016 at 5:32:56 AM

Latest Report: Jun 25, 2016 at 4:00 AM


Visibility: 6 mi

Pressure: 29.92 "Hg

Humidity: 91%

Dew Point: 69 °F

Location of TraiskirchenLocation

Past Weather in Traiskirchen — Graph

°F

Traiskirchen Temperature Yesterday

Maximum temperature yesterday: 89 °F (at 3:00 PM)
Minimum temperature yesterday: 68 °F (at 3:00 AM)
Average temperature yesterday: 78 °F

High & Low Weather Summary for the Past Weeks

 TemperatureHumidityPressure
High89 °F (Jun 24, 3:00 PM)98% (Jun 21, 3:00 AM)30.28 "Hg (Jun 21, 3:00 AM)
Low53 °F (Jun 18, 3:00 AM)33% (Jun 10, 5:00 PM)29.47 "Hg (Jun 17, 5:00 AM)
Average67 °F73%29.90 "Hg
* Reported Jun 10 4:00 AM — Jun 25 4:00 AM, Traiskirchen, Weather by CustomWeather, © 2016

Note: Actual official high and low records may vary slightly from our data, if they occured in-between our weather recording intervals... More about our weather records

Advertising

Traiskirchen Weather History for the Previous 24 Hours

Scroll right to see more
 ConditionsComfort  
Time TempWeatherWind HumidityBarometerVisibility
4:00 AM
Sat, Jun 25
72 °FClear.N/A91%29.92 "Hg6 mi
3:00 AM71 °FPassing clouds.N/A91%29.93 "Hg7 mi
2:00 AM72 °FPassing clouds.N/A87%29.95 "Hg9 mi
1:00 AM74 °FPassing clouds.3 mph85%29.96 "Hg9 mi
12:00 AM75 °FPassing clouds.3 mph82%29.96 "Hg11 mi
11:00 PM
Fri, Jun 24
74 °FClear.3 mph82%29.97 "Hg11 mi
10:00 PM77 °FPassing clouds.N/A72%29.98 "Hg4 mi
9:00 PM80 °FPassing clouds.N/A67%29.96 "Hg15 mi
8:00 PM84 °FPassing clouds.3 mph63%29.96 "Hg16 mi
7:00 PM87 °FPassing clouds.5 mph56%29.96 "Hg13 mi
6:00 PM88 °FPassing clouds.6 mph53%29.96 "Hg12 mi
3:00 PM89 °FPassing clouds.8 mph51%30.01 "Hg12 mi
2:00 PM87 °FPassing clouds.8 mph49%30.02 "Hg14 mi
1:00 PM87 °FPassing clouds.8 mph53%30.04 "Hg6 mi
12:00 PM85 °FSunny.9 mph51%30.06 "Hg12 mi
11:00 AM83 °FSunny.8 mph58%30.06 "Hg5 mi
10:00 AM81 °FSunny.6 mph63%30.06 "Hg5 mi
9:00 AM78 °FSunny.6 mph68%30.07 "Hg12 mi
8:00 AM75 °FSunny.7 mph72%30.08 "Hg14 mi
7:00 AM72 °FSunny.5 mph76%30.08 "Hg14 mi
6:00 AM70 °FSunny.3 mph83%30.09 "Hg13 mi
5:00 AM70 °FSunny.N/A84%30.10 "Hg12 mi
Weather by CustomWeather, © 2016

See weather overviewHow to use our weather pages